Temp
2 2 2 3 3 4 4 4 4 4 3 4 4 3 3 4 4 3 4 4 3 3 3 3 3 4 5 5 4 3 3 2 1 1 1 3 3 2 2 2 3 2 2
1 1 1 1 2 2 2 3 3 4 4 4 4 4 3 3 3 3 3 3 3 3 3 3 3 3 4 4 4 3 2 2 1 1 1 2 3 2 1 1 2 2 1
-0 -0 -0 0 0 0 1 1 1 2 2 3 3 3 3 3 3 3 3 3 3 2 2 2 2 3 3 3 4 3 2 1 1 1 1 1 2 2 1 1 1 1 1
-1 -1 -0 -0 -0 -0 -0 -0 0 1 1 2 2 2 3 3 2 2 2 3 3 2 2 2 2 2 2 2 2 3 2 1 1 1 1 1 1 1 1 0 0 1 1
-1 -1 -1 -1 -1 -1 -1 -1 -1 -0 -0 0 1 1 2 2 2 2 2 2 2 2 2 2 2 1 1 2 1 2 1 1 0 0 1 1 1 1 1 1 1 1 0
-2 -1 -1 -1 -1 -1 -1 -1 -1 -1 -1 -1 0 0 1 1 1 1 1 1 1 1 1 2 1 1 1 1 0 1 1 1 0 0 1 1 1 2 1 1 1 2 0
-2 -2 -2 -2 -1 -2 -2 -2 -2 -1 -1 -1 -1 -0 -0 0 0 1 1 1 1 1 1 1 1 1 0 0 0 0 1 0 -0 0 1 1 1 2 1 1 1 1 2
-3 -2 -2 -2 -2 -3 -2 -2 -2 -2 -2 -2 -1 -1 -1 -1 -0 -0 0 0 0 0 0 1 1 1 0 -0 -0 -0 0 -0 -1 -1 -0 0 1 1 1 1 1 1 2
-4 -3 -3 -3 -2 -3 -3 -3 -3 -2 -2 -2 -2 -2 -1 -1 -1 -1 -0 0 0 0 -0 -0 0 0 0 -0 -0 -0 -1 0 -1 -1 -1 -0 1 1 2 1 1 1 1
-4 -4 -4 -3 -3 -3 -3 -3 -3 -3 -3 -3 -2 -2 -2 -2 -2 -1 -1 -1 -0 -0 -2 -1 -0 -0 -0 0 -0 -0 -0 0 -1 -1 -0 0 1 1 2 1 1 1 1
-5 -5 -5 -4 -4 -4 -3 -3 -3 -3 -3 -3 -3 -3 -3 -2 -2 -2 -2 -1 -1 -1 -2 -2 -1 -1 -1 -1 -0 -1 -1 -1 -2 -1 -1 -0 0 1 1 1 0 0 1
-6 -6 -5 -5 -5 -5 -5 -4 -4 -4 -4 -3 -3 -3 -3 -3 -2 -2 -2 -2 -2 -2 -3 -3 -2 -2 -2 -1 -1 -1 -1 -1 -1 -1 -1 -0 1 1 1 0 -0 -0 -0
-8 -7 -6 -6 -6 -6 -6 -5 -5 -4 -4 -4 -4 -4 -3 -3 -3 -3 -3 -2 -2 -2 -4 -5 -3 -3 -3 -2 -2 -2 -2 -1 -1 -2 -1 -1 -0 0 1 0 -0 -0 -1
-10 -9 -8 -7 -6 -6 -6 -6 -5 -5 -5 -4 -4 -4 -4 -4 -4 -4 -3 -3 -3 -3 -3 -5 -4 -4 -4 -3 -3 -3 -3 -2 -2 -2 -1 -1 -1 -0 0 0 -0 -0 -1
-11 -11 -10 -9 -8 -8 -7 -7 -6 -5 -5 -5 -4 -4 -4 -4 -4 -4 -4 -4 -4 -3 -3 -4 -5 -4 -4 -4 -4 -3 -4 -3 -2 -2 -2 -1 -1 -1 -1 -0 -1 -0 -1
-12 -12 -11 -11 -10 -9 -9 -8 -8 -7 -6 -6 -5 -5 -5 -4 -5 -5 -5 -4 -4 -4 -4 -4 -6 -5 -5 -5 -4 -4 -4 -4 -3 -2 -2 -2 -2 -1 -1 -1 -1 -1 -1
-13 -13 -13 -13 -12 -11 -10 -10 -10 -8 -8 -7 -6 -6 -5 -5 -5 -5 -5 -5 -4 -4 -4 -4 -5 -6 -5 -5 -5 -4 -4 -4 -3 -3 -2 -2 -2 -2 -2 -2 -1 -1 -1
-16 -15 -15 -14 -14 -13 -12 -12 -12 -12 -11 -8 -8 -7 -6 -6 -6 -6 -6 -6 -5 -4 -5 -5 -5 -6 -6 -6 -5 -5 -5 -4 -4 -3 -2 -2 -3 -2 -2 -2 -2 -1 -1
-19 -18 -18 -17 -17 -16 -15 -14 -13 -13 -12 -11 -10 -9 -8 -7 -7 -6 -6 -6 -6 -5 -5 -5 -5 -5 -6 -6 -6 -5 -5 -4 -4 -3 -3 -2 -3 -2 -2 -2 -2 -2 -1
-21 -21 -20 -19 -19 -18 -18 -17 -15 -14 -13 -12 -11 -9 -9 -10 -9 -7 -6 -6 -6 -6 -5 -5 -5 -5 -5 -6 -6 -6 -6 -5 -5 -4 -3 -3 -3 -2 -3 -3 -2 -2 -1
-22 -22 -21 -21 -21 -20 -20 -18 -18 -16 -15 -14 -12 -11 -12 -12 -10 -8 -7 -7 -6 -6 -5 -5 -5 -5 -5 -6 -7 -6 -6 -5 -5 -4 -4 -3 -3 -2 -2 -3 -2 -2 -2
-22 -22 -22 -21 -21 -21 -21 -20 -20 -18 -17 -16 -14 -13 -13 -13 -12 -9 -8 -7 -6 -6 -6 -6 -6 -5 -5 -5 -6 -6 -6 -6 -5 -5 -4 -3 -3 -3 -3 -3 -3 -3 -2
-22 -22 -22 -21 -21 -21 -21 -21 -21 -20 -19 -18 -16 -15 -13 -12 -11 -10 -9 -8 -8 -7 -6 -6 -6 -6 -5 -5 -6 -6 -6 -6 -5 -5 -5 -4 -3 -3 -3 -2 -3 -3 -2
-21 -21 -21 -21 -21 -21 -21 -21 -21 -21 -20 -19 -18 -16 -14 -13 -12 -10 -10 -9 -9 -8 -7 -6 -6 -5 -5 -5 -6 -6 -6 -6 -6 -5 -5 -4 -3 -2 -2 -2 -2 -3 -3
-21 -21 -21 -21 -21 -21 -21 -20 -20 -20 -20 -20 -18 -17 -16 -14 -13 -11 -11 -10 -10 -9 -8 -7 -7 -6 -5 -5 -6 -6 -6 -6 -6 -6 -5 -4 -3 -3 -2 -2 -2 -3 -3
-19 -20 -21 -21 -21 -21 -21 -21 -20 -20 -19 -19 -19 -18 -17 -16 -15 -14 -12 -12 -10 -9 -8 -8 -8 -7 -6 -7 -7 -7 -7 -6 -6 -6 -6 -5 -3 -3 -3 -2 -2 -3 -3
Height
1512 1512 1510 1509 1507 1505 1503 1500 1499 1498 1497 1496 1496 1496 1496 1497 1499 1500 1502 1502 1504 1505 1507 1507 1508 1509 1513 1514 1514 1514 1514 1513 1513 1513 1513 1514 1514 1516 1518 1520 1521 1522 1522
1511 1511 1510 1508 1507 1506 1504 1502 1500 1498 1496 1494 1493 1493 1493 1494 1494 1496 1497 1499 1500 1502 1503 1504 1506 1506 1509 1511 1511 1511 1511 1510 1509 1509 1510 1510 1512 1514 1516 1518 1520 1520 1521
1509 1508 1508 1507 1506 1505 1504 1503 1500 1498 1496 1494 1492 1491 1490 1490 1490 1491 1493 1494 1496 1498 1500 1500 1502 1503 1505 1508 1508 1508 1508 1508 1507 1506 1507 1507 1509 1511 1514 1515 1518 1518 1520
1507 1506 1506 1505 1504 1503 1502 1501 1500 1498 1496 1493 1491 1490 1488 1487 1487 1488 1489 1491 1492 1494 1496 1497 1498 1500 1503 1504 1505 1505 1504 1504 1504 1504 1503 1504 1506 1509 1511 1513 1516 1517 1518
1505 1504 1503 1503 1502 1501 1500 1499 1498 1496 1495 1493 1492 1490 1488 1486 1485 1485 1486 1487 1488 1490 1491 1493 1496 1497 1500 1501 1502 1501 1501 1500 1502 1500 1500 1501 1503 1505 1507 1511 1513 1515 1516
1501 1500 1500 1500 1500 1499 1498 1497 1496 1494 1493 1492 1490 1489 1487 1485 1484 1484 1484 1484 1485 1487 1489 1490 1492 1495 1496 1498 1498 1499 1499 1498 1499 1498 1499 1499 1500 1503 1506 1508 1511 1512 1514
1497 1496 1495 1495 1496 1496 1495 1495 1494 1492 1491 1489 1487 1486 1485 1483 1482 1482 1481 1481 1481 1483 1485 1487 1489 1490 1492 1494 1494 1495 1496 1496 1496 1496 1497 1498 1498 1501 1504 1506 1509 1510 1511
1492 1491 1491 1489 1489 1490 1491 1491 1490 1489 1488 1487 1486 1485 1483 1481 1480 1478 1477 1477 1477 1478 1481 1482 1484 1485 1487 1489 1490 1491 1493 1493 1494 1494 1495 1497 1498 1499 1502 1506 1508 1508 1510
1487 1487 1486 1484 1484 1485 1486 1487 1487 1487 1486 1485 1484 1483 1482 1480 1478 1476 1475 1474 1474 1474 1476 1478 1479 1481 1483 1485 1486 1488 1489 1491 1492 1492 1493 1495 1497 1498 1501 1503 1505 1507 1508
1484 1482 1481 1480 1479 1479 1480 1481 1483 1483 1483 1482 1482 1481 1480 1479 1477 1475 1473 1471 1470 1470 1472 1474 1475 1477 1478 1479 1483 1485 1486 1488 1490 1491 1492 1494 1495 1497 1499 1502 1504 1506 1507
1479 1478 1477 1475 1474 1473 1473 1474 1476 1478 1478 1478 1478 1478 1477 1477 1475 1473 1472 1470 1468 1467 1467 1470 1470 1471 1474 1476 1479 1482 1483 1486 1487 1488 1490 1492 1494 1496 1498 1500 1502 1505 1505
1473 1472 1471 1470 1468 1467 1467 1468 1468 1470 1472 1473 1473 1474 1474 1473 1472 1471 1470 1468 1466 1465 1464 1466 1467 1467 1470 1473 1475 1478 1480 1482 1485 1486 1489 1491 1493 1495 1497 1499 1501 1504 1505
1466 1465 1464 1463 1462 1462 1461 1461 1462 1463 1464 1466 1467 1468 1469 1469 1469 1468 1467 1466 1465 1464 1462 1462 1463 1464 1466 1469 1471 1475 1477 1479 1481 1483 1487 1489 1491 1494 1496 1498 1500 1502 1504
1457 1456 1455 1453 1453 1453 1454 1454 1454 1454 1456 1458 1460 1462 1463 1464 1465 1464 1463 1463 1462 1461 1460 1460 1460 1462 1463 1465 1468 1470 1473 1475 1478 1481 1484 1487 1489 1492 1493 1496 1499 1502 1503
1447 1446 1445 1444 1443 1442 1443 1444 1445 1446 1447 1448 1451 1454 1456 1457 1460 1459 1459 1459 1458 1457 1457 1457 1458 1459 1460 1462 1464 1466 1469 1472 1475 1478 1481 1484 1487 1490 1492 1494 1497 1499 1501
1436 1435 1434 1434 1434 1433 1433 1433 1434 1435 1437 1438 1441 1444 1447 1449 1453 1454 1455 1455 1454 1453 1453 1453 1454 1456 1458 1460 1461 1462 1465 1469 1472 1475 1478 1481 1484 1487 1490 1492 1495 1497 1500
1426 1424 1423 1423 1423 1424 1423 1423 1422 1424 1426 1428 1430 1433 1436 1440 1444 1447 1448 1449 1449 1449 1449 1450 1450 1452 1454 1456 1458 1459 1461 1465 1469 1471 1474 1478 1482 1485 1488 1491 1493 1495 1498
1415 1413 1412 1411 1411 1412 1413 1413 1414 1415 1415 1417 1421 1423 1426 1430 1434 1438 1440 1441 1443 1443 1444 1445 1446 1447 1449 1450 1452 1454 1456 1460 1464 1466 1470 1475 1478 1482 1485 1488 1491 1494 1497
1404 1402 1401 1400 1400 1400 1401 1403 1403 1404 1406 1407 1410 1414 1417 1419 1424 1427 1431 1431 1434 1436 1438 1439 1440 1442 1443 1445 1446 1449 1450 1453 1458 1461 1464 1470 1474 1478 1481 1485 1488 1493 1496
1395 1393 1392 1390 1389 1389 1390 1391 1392 1393 1395 1397 1399 1402 1406 1411 1413 1416 1419 1422 1425 1427 1430 1432 1433 1435 1437 1438 1440 1443 1445 1447 1451 1454 1458 1464 1469 1473 1477 1482 1486 1490 1493
1387 1385 1384 1382 1381 1380 1380 1380 1382 1383 1383 1385 1387 1392 1396 1398 1400 1404 1408 1411 1414 1418 1422 1424 1426 1427 1429 1431 1434 1436 1438 1441 1444 1448 1452 1457 1463 1468 1473 1479 1483 1488 1491
1381 1378 1376 1374 1373 1372 1371 1371 1372 1373 1374 1375 1376 1380 1385 1388 1388 1391 1395 1399 1403 1407 1412 1415 1417 1419 1421 1423 1425 1429 1431 1434 1437 1441 1445 1450 1457 1463 1468 1474 1479 1484 1488
1376 1372 1370 1367 1366 1364 1363 1362 1362 1362 1363 1364 1366 1369 1372 1375 1377 1380 1383 1387 1391 1395 1401 1404 1407 1410 1412 1414 1417 1421 1424 1427 1430 1435 1438 1444 1450 1457 1463 1469 1475 1480 1485
1371 1368 1365 1362 1360 1357 1355 1354 1354 1354 1354 1355 1356 1358 1360 1363 1366 1369 1373 1376 1380 1384 1389 1393 1396 1400 1403 1405 1409 1413 1416 1420 1423 1427 1433 1438 1444 1451 1457 1465 1471 1478 1483
1368 1364 1360 1357 1354 1351 1349 1347 1346 1346 1346 1346 1347 1348 1350 1352 1355 1358 1361 1365 1369 1373 1377 1382 1386 1390 1393 1396 1400 1405 1408 1412 1416 1421 1426 1432 1438 1446 1452 1460 1467 1474 1479
1368 1362 1357 1352 1348 1346 1343 1342 1340 1339 1339 1339 1339 1340 1341 1343 1345 1348 1351 1355 1359 1363 1367 1371 1376 1380 1384 1387 1392 1396 1400 1405 1409 1414 1420 1425 1432 1438 1446 1455 1462 1470 1476
Wind_Speed
12 12 11 10 10 10 11 10 9 9 7 5 5 6 10 12 10 12 13 14 13 12 14 12 10 8 14 15 11 11 12 13 17 18 16 13 10 10 11 10 7 5 3
13 12 11 11 11 11 10 10 10 9 9 8 7 6 8 11 12 11 12 13 13 13 13 14 14 11 12 11 11 11 12 12 17 19 19 16 12 11 12 10 8 6 4
15 13 12 12 12 12 12 11 11 10 10 9 9 8 8 9 12 13 12 13 13 15 14 14 16 16 11 13 12 12 12 13 15 17 17 16 14 13 14 13 11 8 5
17 16 15 15 15 15 14 13 13 11 11 10 9 9 9 9 10 12 14 13 13 14 15 14 16 16 14 12 13 13 12 13 14 15 16 16 15 15 16 15 13 10 7
17 18 17 16 16 16 16 15 14 13 12 12 11 10 9 9 10 10 12 14 14 13 13 14 16 16 14 12 11 13 13 13 13 15 16 15 16 16 19 17 16 12 10
19 20 20 19 17 16 16 15 13 12 12 12 11 12 11 10 9 10 11 12 13 14 13 13 15 17 16 14 9 15 14 13 12 14 15 14 13 15 17 17 16 13 11
20 20 21 22 21 18 16 15 13 12 12 13 13 13 12 12 11 10 11 12 12 13 13 13 15 17 17 16 14 14 17 14 13 13 14 11 9 9 13 15 15 11 10
22 21 21 22 23 22 19 16 15 15 13 12 13 14 14 15 14 13 13 11 11 11 13 13 14 16 16 16 15 15 15 15 13 13 12 11 7 8 10 11 11 10 8
22 21 20 21 21 21 23 18 16 15 15 14 13 13 13 14 16 16 14 13 12 10 11 13 13 16 17 16 13 12 15 15 15 14 12 12 11 9 10 10 11 10 9
22 22 21 22 22 21 22 22 18 16 15 15 14 14 14 14 15 16 17 14 12 10 9 11 13 15 18 19 16 15 14 14 14 13 13 14 13 11 10 10 10 9 8
26 26 25 24 24 22 20 24 22 20 18 17 16 15 14 14 14 15 17 17 16 12 8 9 11 14 17 19 17 16 14 14 13 14 12 13 13 12 12 11 10 9 7
30 30 29 28 27 25 22 24 25 24 23 21 20 17 15 14 13 14 15 16 17 16 12 9 11 13 16 19 19 17 17 15 15 14 15 15 14 14 13 12 11 10 7
29 30 32 32 30 28 25 25 28 27 27 25 24 21 17 15 14 14 14 15 16 16 14 9 12 11 14 19 20 17 19 18 15 15 16 16 15 14 14 13 13 11 9
31 30 30 33 34 32 30 27 28 31 31 30 28 26 22 19 15 15 15 15 14 14 15 11 11 11 11 16 20 19 21 20 16 15 16 17 16 16 15 14 13 11 10
34 33 32 31 32 33 32 32 30 31 31 33 32 29 27 25 18 17 15 15 16 16 16 14 10 11 12 15 20 22 22 21 19 17 18 17 17 18 16 15 14 12 11
38 37 35 33 33 33 32 34 33 33 31 31 32 33 32 29 23 19 17 16 16 16 18 17 13 13 12 16 20 24 25 23 21 19 20 17 18 19 18 17 15 13 11
38 38 38 36 34 34 34 33 35 34 32 32 32 33 34 33 28 24 20 18 18 19 19 18 18 16 18 15 20 24 27 26 22 22 21 19 18 20 20 18 16 14 13
35 36 37 38 37 35 34 34 33 31 32 35 32 33 34 33 32 28 24 22 21 22 22 20 19 19 20 21 19 22 26 26 26 27 23 22 21 22 22 20 18 15 14
31 33 33 34 35 35 33 33 34 34 36 36 36 35 34 34 32 31 28 28 25 23 23 24 21 19 20 23 23 21 24 26 27 29 27 24 24 23 24 22 19 16 15
28 29 29 30 32 33 33 33 34 35 36 37 38 39 37 34 35 34 32 30 28 27 25 25 25 22 21 22 25 25 24 25 27 30 30 26 25 26 26 25 22 19 17
27 27 26 27 29 30 31 31 32 35 37 38 39 37 35 33 37 38 37 35 33 31 29 28 26 25 22 23 25 29 26 27 27 30 32 29 26 28 27 26 24 21 19
25 27 26 27 26 28 29 29 31 33 35 37 38 36 33 32 34 35 37 38 38 34 31 30 29 28 26 25 25 28 28 29 29 30 32 30 27 28 28 29 27 24 22
24 26 26 27 27 26 27 27 29 31 33 34 35 35 35 35 35 36 35 34 34 34 32 31 31 30 29 26 26 29 29 29 29 30 31 31 29 29 31 31 30 28 25
19 19 22 24 25 26 27 27 26 26 28 30 32 34 35 35 36 36 35 35 33 31 30 30 32 32 31 29 28 28 29 27 29 29 29 31 29 31 33 32 31 29 26
21 19 19 20 22 24 24 25 25 25 25 26 27 30 33 34 35 36 35 33 33 31 30 30 32 32 30 29 28 28 27 27 29 27 29 31 29 31 33 33 33 31 29
27 24 20 18 18 19 21 20 23 24 24 22 22 23 25 28 31 32 32 32 31 30 30 29 29 29 31 29 30 29 28 26 27 27 28 31 31 32 35 35 35 34 32
Wind_Direction
359 3 7 13 14 10 5 6 7 7 3 346 317 282 274 279 271 261 258 263 254 261 248 239 249 262 280 292 287 280 264 250 240 249 258 267 262 236 236 237 241 244 261
340 344 347 351 352 353 352 352 347 344 342 340 329 305 283 276 274 268 265 263 265 269 262 255 248 243 275 283 291 286 274 259 245 247 253 258 261 240 231 228 229 229 235
317 323 329 337 343 346 347 345 344 343 340 337 333 326 307 289 287 283 269 270 268 255 259 264 257 249 252 275 298 298 285 265 256 253 252 257 253 246 230 226 223 219 221
299 303 310 319 328 334 339 340 340 338 336 338 338 332 325 309 287 281 278 272 271 269 259 265 264 258 258 266 277 293 294 276 262 253 252 251 251 244 231 223 224 220 226
283 279 284 296 307 320 329 333 336 338 338 338 341 342 335 322 307 288 277 273 268 269 267 258 259 253 254 266 283 294 290 275 260 256 253 249 247 238 229 223 224 224 230
289 278 274 273 285 299 314 322 327 336 343 345 341 339 340 337 324 309 286 272 269 264 263 259 253 254 251 251 264 283 291 268 257 255 258 257 251 242 229 223 227 226 224
302 288 280 276 272 276 291 304 310 315 323 334 344 349 345 340 337 324 313 290 270 266 262 257 252 247 249 252 249 265 288 272 253 255 256 259 247 239 224 225 229 230 236
306 300 289 279 273 268 270 283 295 305 312 323 333 338 347 347 342 336 328 315 289 265 265 259 254 245 243 246 255 250 275 269 252 251 253 247 232 211 219 224 233 236 232
309 304 297 290 277 269 262 268 280 295 298 305 318 328 333 342 348 344 337 328 320 277 255 258 251 248 238 240 245 253 265 262 251 245 242 233 221 210 208 216 219 226 226
311 308 302 295 292 281 257 255 266 281 288 293 301 312 321 328 336 345 343 336 327 311 259 253 252 247 240 236 239 251 258 262 255 248 243 234 220 214 213 212 214 221 229
305 305 304 301 297 293 264 250 256 264 275 283 290 300 309 315 319 329 338 340 332 320 296 256 250 248 243 241 238 243 251 258 267 253 239 232 222 214 213 212 213 224 225
295 295 294 294 297 296 287 257 254 259 265 274 284 291 297 304 312 318 323 333 334 329 314 253 255 246 236 237 238 237 238 240 249 249 238 229 222 217 217 213 215 222 218
292 287 286 284 285 288 288 278 263 258 260 265 272 280 286 292 302 310 314 319 326 328 319 293 262 253 239 229 234 235 239 241 247 243 238 228 220 220 219 216 216 219 216
292 289 285 281 280 279 278 277 273 265 260 259 263 271 279 280 288 298 308 311 315 321 317 303 273 267 252 235 233 231 234 243 245 243 236 230 219 217 217 215 216 216 212
292 288 285 283 280 278 274 271 270 267 266 263 262 264 268 272 278 284 296 307 312 312 309 299 281 271 256 240 230 232 237 237 241 239 231 228 220 218 216 214 209 210 213
290 288 285 280 277 275 274 270 263 263 263 262 260 259 262 265 267 273 281 292 299 301 298 300 290 274 268 255 241 234 235 237 239 238 238 225 225 222 217 212 210 208 206
284 284 284 281 276 272 271 269 269 262 257 257 256 255 255 261 262 264 266 275 284 288 291 293 291 275 270 262 252 247 243 241 238 236 244 232 225 223 219 215 212 207 203
282 279 277 277 277 273 267 266 265 263 262 256 251 257 256 256 258 259 259 262 268 278 287 290 285 283 266 266 257 251 249 243 239 238 237 237 225 223 218 215 213 210 206
285 280 278 275 273 273 271 265 262 260 256 257 256 251 254 258 256 255 254 257 262 268 278 283 284 279 276 260 261 254 252 246 239 237 235 236 227 221 218 214 213 209 207
293 288 285 280 276 272 269 266 262 260 258 256 256 254 254 253 253 255 256 256 257 262 270 274 278 280 273 267 254 257 252 248 240 237 235 231 230 222 220 215 211 209 205
302 297 292 287 282 279 277 270 262 260 260 258 255 254 257 257 255 254 253 253 255 259 263 265 269 272 267 266 252 252 254 248 242 237 234 228 226 223 217 215 213 208 205
303 300 296 292 289 284 279 273 268 263 259 259 259 258 255 249 251 253 251 252 254 255 257 261 263 265 266 262 254 247 253 247 243 238 233 228 224 222 215 214 209 206 203
308 305 302 299 296 291 286 278 270 266 262 260 259 258 256 252 252 253 255 254 253 251 248 251 253 256 259 258 250 243 247 250 244 240 234 225 223 220 215 212 209 205 200
319 311 304 300 298 296 291 286 282 275 268 262 259 257 255 253 252 253 254 254 252 250 244 242 244 247 251 253 246 244 242 249 245 241 234 225 219 218 213 209 208 205 198
341 323 308 299 297 297 296 291 287 281 275 268 262 257 255 254 253 252 252 251 249 245 240 237 239 242 244 247 244 240 238 244 242 239 231 222 215 217 210 207 205 201 196
5 358 344 327 307 288 280 284 288 288 284 279 273 266 260 254 252 252 250 246 243 239 236 231 232 237 239 240 236 235 237 239 235 233 227 218 209 209 207 205 203 199 194